Weather History for Hill City, KS

Change the Weather History Date:

Thursday, July 18, 2013

  Actual Average Record
Temperature  
Mean Temperature 82 °F 80 °F  
Max Temperature 95 °F 93 °F 111 °F (1936)
Min Temperature 68 °F 66 °F 55 °F (1922)
Cooling Degree Days 16    
Growing Degree Days 30 (Base 50)    
Moisture  
Dew Point 62 °F    
Average Humidity 54    
Maximum Humidity 87    
Minimum Humidity 31    
Precipitation  
Precipitation 0.00 in 0.13 in 0.76 in (2005)
Month to date precipitation 0.21 2.17  
Year to date precipitation 7.23 13.43  
Sea Level Pressure  
Sea Level Pressure 30.02 in    
Wind  
Wind Speed 11 mph (SSW)    
Max Wind Speed 23 mph    
Max Gust Speed 33 mph    
Visibility 10 miles    
Events      
T = Trace of Precipitation, MM = Missing Value Source: NWS Daily Summary

Daily Weather History Graph

Daily Weather History Graph

Search for Another Location

Airport:

Trip Planner

Search our weather history database for the weather conditions in past years. The results will help you decide how hot, cold, wet, or windy it might be!

Date:

Astronomy

Jul. 18, 2013 Rise Set
Actual Time 6:27 AM CDT 9:03 PM CDT
Civil Twilight 5:56 AM CDT 9:34 PM CDT
Nautical Twilight 5:17 AM CDT 10:13 PM CDT
Astronomical Twilight 4:33 AM CDT 10:56 PM CDT
Moon 5:02 PM CDT 2:18 AM CDT
Length of Visible Light 15h 38m
Length of Day
14h 35m
Waxing Gibbous, 77% of the Moon is Illuminated
Jul 18
Waxing Gibbous
Jul 22
Full
Jul 29
Last Quarter
Aug 6
New
Aug 14
First Quarter

Hourly Weather History & Observations

Time (CDT) Temp. Heat Index Dew Point Humidity Pressure Visibility Wind Dir Wind Speed Gust Speed Precip Events Conditions
12:53 AM 75.0 °F - 63.0 °F 66% 30.14 in 10.0 mi South 8.1 mph - N/A   Clear
1:53 AM 73.9 °F - 64.0 °F 71% 30.15 in 10.0 mi South 8.1 mph - N/A   Clear
2:53 AM 72.0 °F - 64.0 °F 76% 30.14 in 10.0 mi SSW 8.1 mph - N/A   Clear
3:53 AM 71.1 °F - 64.0 °F 78% 30.12 in 10.0 mi SSW 6.9 mph - N/A   Clear
4:53 AM 70.0 °F - 64.0 °F 81% 30.10 in 10.0 mi SSW 5.8 mph - N/A   Clear
5:53 AM 69.1 °F - 64.0 °F 84% 30.10 in 10.0 mi Calm Calm - N/A   Clear
6:53 AM 68.0 °F - 64.0 °F 87% 30.11 in 10.0 mi South 4.6 mph - N/A   Clear
7:53 AM 71.1 °F - 64.9 °F 81% 30.10 in 10.0 mi South 8.1 mph - N/A   Clear
8:53 AM 75.9 °F - 64.9 °F 69% 30.09 in 10.0 mi SSW 15.0 mph 25.3 mph N/A   Clear
9:53 AM 80.1 °F 81.9 °F 64.9 °F 60% 30.09 in 10.0 mi South 15.0 mph 26.5 mph N/A   Clear
10:53 AM 82.9 °F 84.4 °F 64.0 °F 53% 30.06 in 10.0 mi SSW 17.3 mph 27.6 mph N/A   Clear
11:53 AM 87.1 °F 87.8 °F 63.0 °F 44% 30.04 in 10.0 mi SSW 20.7 mph 27.6 mph N/A   Clear
12:53 PM 89.1 °F 89.3 °F 62.1 °F 40% 30.03 in 10.0 mi SSW 23.0 mph 33.4 mph N/A   Clear
1:53 PM 91.0 °F 90.9 °F 61.0 °F 36% 30.00 in 10.0 mi SSW 13.8 mph 28.8 mph N/A   Partly Cloudy
2:53 PM 93.0 °F 92.3 °F 59.0 °F 32% 29.97 in 10.0 mi SSW 17.3 mph 32.2 mph N/A   Clear
3:53 PM 93.9 °F 93.2 °F 59.0 °F 31% 29.94 in 10.0 mi SSW 16.1 mph 33.4 mph N/A   Clear
4:53 PM 93.9 °F 93.2 °F 59.0 °F 31% 29.93 in 10.0 mi SSW 15.0 mph 33.4 mph N/A   Clear
5:53 PM 93.0 °F 92.0 °F 57.9 °F 31% 29.91 in 10.0 mi SSW 18.4 mph 29.9 mph N/A   Partly Cloudy
6:53 PM 91.9 °F 91.2 °F 59.0 °F 33% 29.90 in 10.0 mi South 15.0 mph 25.3 mph N/A   Partly Cloudy
7:53 PM 90.0 °F 88.8 °F 57.9 °F 34% 29.89 in 10.0 mi South 18.4 mph 28.8 mph N/A   Clear
8:53 PM 87.1 °F 86.1 °F 57.9 °F 37% 29.90 in 10.0 mi SSW 10.4 mph - N/A   Clear
9:53 PM 82.9 °F 82.8 °F 59.0 °F 44% 29.91 in 10.0 mi South 8.1 mph - N/A   Clear
10:53 PM 82.0 °F 82.7 °F 61.0 °F 49% 29.94 in 10.0 mi South 11.5 mph - N/A   Clear
11:53 PM 81.0 °F 81.9 °F 62.1 °F 52% 29.95 in 10.0 mi South 10.4 mph - N/A   Clear